Forside
METAR-TAF:

METAR-TAF

Lufthavne :

Ludington, Michigan, USA

Breddekreds: 43-58N, længdekreds: 086-24W, højde: 197 m

Aktuelle vejr

Denne rapport blev lavet for 16 minutter siden, kl. 06:55 UTC
Vind 6 kt fra sydvest
Temperatur 7°C
Fugtighed 76%
Tryk 1013 hPa
Sigt: 16.1 km
skyfri

METAR: KLDM 290655Z AUTO 22006KT 10SM CLR 07/03 A2991 RMK AO2 T00650033

Tid: 02:11 (07:11 UTC)


TAF: fraværende

Vejrobservationer og prognoser fra mere end 4000 lufthavne (METAR og TAF).

De gule og røde prikker repræsenterer de meteorologiske stationer.

Flyt musen over at se navnet på stationen.

Så klik over at se vejr observationer og prognoser.

At skifte det kort: Klik på de grønne knapper med et sort kors for at zoome ind; på den grønne knap med en bindestreg for at zoome ud; eller på de grønne pile for tilstødende kort.


METAR-TAF: